Location: Recife
(8.0585°S, 34.8848°W)
Time: 21:16:32
(UTC-03:00)

A-11 Canister half - Pass Details

Date: 15 April 2026
Orbit: 1523 x 1684 km, 47.3° (Epoch: 16 May)

Event Time Altitude Azimuth Distance (km) Brightness Sun altitude
Rises 18:59:55 0° 203° (SSW) 4,717 11.8 -26.0°
Reaches altitude 10° 19:03:37 10° 191° (S) 3,752 11.1 -26.9°
Enters shadow 19:09:26 26° 154° (SSE) 2,737 10.0 -28.3°
Maximum altitude 19:11:24 28° 136° (SE) 2,660 - -28.8°
Drops below altitude 10° 19:19:19 10° 81° (E) 3,847 - -30.7°
Sets 19:23:07 0° 69° (ENE) 4,855 - -31.7°
